CAPE
0 0 49 350 740 769 1073 948 789 857 609 562 553 459 595 574 600 297 282 747 643 589 881 834 837 704 453 226 11 0 0 0 0 33 5 0 0 0 0 0 0 0 0
0 0 0 14 603 857 907 927 855 704 763 610 521 542 568 683 688 400 300 793 621 601 812 768 656 443 374 251 26 0 0 0 16 0 0 0 0 0 0 0 0 0 0
0 0 0 1 220 663 758 845 875 679 684 785 639 654 662 704 710 460 504 632 731 849 794 688 556 382 264 175 31 0 7 19 0 0 0 0 0 2 3 2 95 160 279
0 0 0 0 10 317 654 741 863 619 615 811 771 764 905 906 823 508 357 364 317 664 674 443 288 135 122 39 0 12 22 0 0 0 0 0 0 10 148 90 245 224 274
0 0 0 0 0 5 196 457 630 603 475 577 744 864 941 1042 929 620 336 214 283 594 574 458 228 75 49 4 38 46 11 0 0 0 0 1 11 19 325 264 215 139 145
0 0 0 0 0 0 3 24 357 475 420 408 511 677 643 970 827 798 359 276 218 276 409 312 286 111 0 0 45 27 0 0 0 0 0 16 77 220 156 165 95 74 58
0 0 0 0 0 0 0 0 2 281 504 404 371 494 555 399 550 552 358 278 273 297 251 302 288 145 85 33 0 40 0 0 0 0 7 123 100 90 140 73 29 16 7
0 0 0 0 0 0 0 0 0 3 72 318 419 406 354 346 340 511 392 249 299 311 222 232 214 116 29 0 0 0 0 0 0 11 47 74 56 114 110 45 21 5 3
0 0 0 0 0 0 0 0 0 0 0 10 119 265 383 355 288 297 385 270 181 248 217 205 193 86 31 0 0 0 0 0 12 43 60 76 35 108 53 4 0 0 1
0 0 0 0 0 0 0 0 0 0 0 0 7 97 121 197 297 297 277 285 211 163 179 239 210 136 64 0 37 0 0 0 52 91 89 81 58 103 41 0 0 0 1
0 0 0 0 0 0 0 0 0 0 0 0 0 5 155 338 412 390 343 309 269 207 158 137 187 110 62 0 0 0 0 50 67 63 96 79 65 113 59 4 0 1 3
0 0 0 0 0 0 0 0 0 0 0 0 0 5 29 220 421 401 402 240 205 187 124 97 109 111 55 0 0 0 37 47 65 73 103 95 50 98 92 23 1 0 5
0 0 0 0 0 0 0 0 0 0 0 0 0 0 1 71 287 356 412 248 179 165 126 75 49 124 49 4 0 67 58 74 66 35 32 32 3 80 78 52 1 0 2
0 0 0 0 0 0 0 0 0 0 0 0 0 0 0 20 120 189 338 426 287 159 145 16 52 82 36 7 8 87 73 70 68 48 1 8 0 74 48 9 0 1 4
0 0 0 0 0 0 0 0 0 0 0 0 0 0 0 0 16 73 257 201 100 125 12 0 15 51 84 46 117 85 109 91 87 56 35 0 0 58 74 70 4 2 3
0 0 0 0 0 0 0 0 0 0 0 0 0 0 0 0 0 5 209 211 74 115 53 17 0 2 52 95 109 110 119 97 93 85 91 3 0 31 52 87 78 80 4
0 0 0 0 0 0 0 0 0 0 0 0 0 0 0 0 0 0 24 273 287 188 96 107 21 27 41 34 78 160 163 118 179 108 120 84 0 0 0 31 57 33 72
0 0 0 0 1 2 5 1 0 0 0 0 0 0 0 0 0 0 0 142 307 307 219 73 22 34 18 52 27 59 136 157 178 133 144 101 79 48 4 0 0 0 5
0 0 0 1 1 0 1 3 2 0 0 0 0 0 0 0 0 0 0 44 198 313 249 102 12 33 85 67 44 28 1 0 3 0 0 0 0 0 0 0 0 0 3
0 0 0 0 0 0 0 0 0 0 0 0 0 0 0 0 0 0 0 0 166 257 186 132 21 31 90 100 11 0 0 1 2 1 3 0 1 0 1 0 0 0 37
0 0 0 0 0 0 0 1 0 0 0 0 0 0 0 0 0 0 0 0 1 175 191 137 70 32 106 1 0 4 8 6 1 7 4 2 3 1 4 5 6 1 0
1 1 0 1 2 2 4 1 1 0 0 0 0 0 0 0 0 0 0 0 0 167 200 182 140 71 65 1 0 0 0 2 10 6 8 10 11 6 2 7 7 7 2
0 1 1 1 1 3 6 0 1 0 1 0 0 0 1 0 0 0 0 5 1 20 116 146 185 128 76 3 0 0 0 0 3 4 5 6 5 4 6 2 2 1 1
1 2 3 2 1 2 3 1 2 3 1 2 5 3 3 0 0 0 1 0 0 17 99 121 169 87 61 21 4 4 0 0 0 2 3 2 2 2 2 2 1 2 1
1 2 2 2 1 0 1 1 3 2 1 0 0 0 1 1 1 0 0 2 0 0 56 105 158 160 83 27 45 5 0 0 0 0 0 3 2 3 1 4 2 2 0
2 2 2 1 1 0 0 2 4 3 2 1 1 0 0 3 3 1 4 3 3 0 1 0 0 6 8 13 10 0 0 0 0 0 0 8 1 4 3 4 3 3 2
CIN
0 -1 -190 -44 -9 -18 -4 -21 -27 -21 -35 -47 -28 -48 -2 -12 -12 -56 -68 -6 -2 -4 0 0 0 0 -6 -21 -112 0 0 0 0 -204 -207 0 0 0 0 0 0 0 0
0 0 0 -59 -5 -4 -3 -9 -10 -22 -8 -24 -33 -23 -24 -1 -1 -15 -37 -2 -5 -2 0 0 0 -5 0 -4 -68 0 0 0 -153 0 0 0 0 0 0 0 0 0 0
0 0 0 0 -60 -2 -3 -9 -14 -17 -9 -4 -10 -8 -9 -1 0 -12 -8 -3 -1 0 -2 -13 0 -8 -1 -5 -71 0 -77 -128 0 0 0 0 0 -47 -42 -35 -100 -49 -4
0 0 0 0 -33 -26 -7 -3 -10 -13 -12 -2 -6 -4 -1 -1 0 -9 -21 -26 -36 0 0 0 -20 -16 -14 -78 -4 -79 -64 0 0 0 0 0 0 -177 -79 -123 -20 -24 -5
0 0 0 0 0 0 -55 -7 -2 -10 -18 -8 -3 -4 -3 0 -1 -6 -31 -26 -14 -1 0 0 -4 -26 -34 -100 -83 -110 -51 0 0 0 0 0 -8 -41 -5 -23 -47 -64 -66
0 0 0 0 0 0 0 -32 -15 0 -10 -15 -7 -4 -7 -2 -5 -5 -18 -24 -18 -6 -4 0 0 -7 0 0 -64 -76 0 0 0 0 0 -3 -103 -17 -44 -55 -111 -139 -175
0 0 0 0 0 0 0 0 0 -37 -1 -6 -9 -9 -8 -20 -7 -8 -17 -24 -19 -6 -8 -3 -1 -8 -16 -41 0 -50 0 0 0 0 -1 -86 -73 -92 -86 -85 -19 -31 -36
0 0 0 0 0 0 0 0 0 0 -103 -35 -11 -5 -10 -17 -21 -10 -15 -30 -20 -6 -9 -5 -8 -14 -11 0 0 0 0 0 0 0 -4 -71 -57 -58 -114 -12 -31 -21 -26
0 0 0 0 0 0 0 0 0 0 0 -189 -98 -52 -10 -3 -12 -16 -20 -27 -36 -16 -10 -8 -6 -13 -7 0 0 0 0 0 -5 -1 -7 -12 -8 -10 -9 -9 0 0 0
0 0 0 0 0 0 0 0 0 0 0 0 -100 -90 -80 -59 -20 -11 -11 -17 -31 -33 -28 -10 -7 -8 -11 0 -4 0 0 0 -32 -2 -10 -2 -3 -1 -17 -8 0 0 0
0 0 0 0 0 0 0 0 0 0 0 0 0 -95 -40 -3 -1 -3 -8 -8 -15 -21 -26 -17 -13 -10 -11 0 0 0 0 -10 -15 -2 -8 -12 -5 0 -4 -33 0 0 0
0 0 0 0 0 0 0 0 0 0 0 0 0 0 -86 -14 0 0 -3 -25 -34 -25 -11 -10 -4 -8 -9 0 0 0 -4 0 -4 -2 -6 -23 -14 0 0 -4 0 0 0
0 0 0 0 0 0 0 0 0 0 0 0 0 0 -2 -49 -2 0 -1 -31 -35 -28 -2 -2 -8 -4 -6 -1 0 -18 -5 -6 -3 -8 -30 -37 -3 0 0 0 0 0 0
0 0 0 0 0 0 0 0 0 0 0 0 0 0 0 -103 -15 -4 -1 -1 -15 -2 0 -3 -3 0 -6 -8 -1 -8 -7 -2 -7 -3 -18 -44 0 -3 -1 -7 0 0 0
0 0 0 0 0 0 0 0 0 0 0 0 0 0 0 0 -23 -5 0 -2 -6 -9 -30 0 -16 -4 -1 -3 -2 -7 -3 -1 -2 -6 -10 0 0 -16 0 0 0 0 0
0 0 0 0 0 0 0 0 0 0 0 0 0 0 0 0 0 -27 -1 -44 -29 -19 -54 -80 -98 -36 -5 -3 -1 -3 -7 -4 -6 -4 -1 -59 0 -41 -16 0 0 0 0
0 0 0 0 0 0 0 0 0 0 0 0 0 0 0 0 0 0 -36 0 -2 -8 -37 -24 -89 -90 -41 -11 -2 -1 -5 -17 -13 -3 -2 -1 0 0 0 -17 -6 -7 0
0 0 0 0 -1 -1 0 -1 0 0 0 0 0 0 0 0 0 0 0 -6 -2 -1 0 -44 -59 -49 -50 -65 -26 -4 -7 -13 -27 -12 -10 -12 -5 -22 -8 0 0 0 -14
0 0 0 0 -1 0 0 0 0 0 0 0 0 0 0 0 0 0 0 -64 -2 -1 0 -6 -93 -43 -8 -7 -11 -2 -13 -43 -66 0 0 0 0 0 0 0 0 0 -5
-1 -1 -1 0 0 0 0 0 0 0 0 0 0 0 0 0 0 0 0 0 -20 -3 -20 -17 -66 -42 -5 -3 -3 0 0 0 0 0 0 0 0 0 0 0 0 0 -1
-2 -1 -1 -1 0 0 0 0 0 0 0 0 0 0 0 0 0 0 0 0 -108 -33 -20 -44 -44 -33 -1 0 0 0 0 0 0 0 0 0 0 0 0 0 0 0 0
-1 -2 -1 0 0 0 0 0 0 0 0 -3 0 0 0 0 0 0 0 0 0 -17 -17 -17 -17 -28 -10 0 -4 0 0 0 0 0 0 0 0 0 0 0 0 0 0
-1 -1 -1 -1 0 0 0 0 0 0 -1 0 0 0 0 -1 0 0 0 -184 -29 -151 -61 -21 0 -4 -7 -15 0 0 -7 0 0 0 0 0 0 0 0 0 0 0 0
-1 -1 -1 0 0 0 0 0 0 0 0 -1 -3 -4 -4 0 0 0 0 0 0 -186 -54 -33 -7 -17 -12 -7 -25 -23 0 0 0 0 0 0 0 0 0 0 0 0 0
-1 0 0 0 0 0 0 0 0 0 0 -1 0 0 -1 0 0 0 0 0 0 0 -84 -28 0 -4 -20 -47 -2 -14 0 0 0 0 0 0 0 0 0 0 0 0 0
-1 0 0 0 0 0 0 0 0 0 0 0 0 0 0 0 0 0 0 0 0 0 0 0 0 -18 -10 -11 -35 0 0 0 0 0 0 0 0 0 0 0 0 0 0
Wind_Speed
27 28 28 27 27 28 24 16 16 14 10 7 9 9 8 6 5 5 3 3 2 4 5 6 7 6 7 5 4 5 5 5 5 7 7 8 8 7 6 6 6 6 6
28 29 28 28 27 28 28 19 17 15 14 12 10 10 10 10 8 7 6 5 4 2 2 3 3 3 3 3 4 4 4 4 4 5 7 7 7 6 6 6 7 5 6
28 29 28 28 27 28 29 22 18 18 18 14 13 14 14 12 11 9 9 8 7 5 3 2 2 3 3 3 4 3 3 4 4 4 5 5 5 4 5 5 8 4 3
29 28 28 29 28 28 28 27 19 19 20 19 17 17 15 16 13 11 10 10 9 8 6 5 5 6 6 4 4 4 4 4 4 3 4 4 4 3 3 3 5 7 10
30 29 28 29 28 27 26 27 27 22 22 23 20 21 20 18 16 13 13 11 10 10 9 7 8 8 7 6 5 4 4 3 3 3 3 3 3 3 3 5 6 7 8
31 30 29 30 29 28 27 26 24 29 26 25 23 22 21 20 18 16 14 13 12 11 10 10 9 9 9 9 7 5 5 4 3 3 6 6 4 3 5 6 6 5 5
32 31 30 30 30 29 28 27 27 25 27 28 27 25 24 23 23 20 15 15 13 12 12 11 9 10 10 10 9 10 8 7 5 5 5 4 3 3 4 5 3 2 2
34 32 31 31 31 31 30 29 28 27 26 26 29 30 28 24 22 22 19 16 15 14 12 12 10 10 11 12 12 13 12 11 9 9 7 6 2 2 2 1 2 3 3
34 34 33 33 33 32 31 30 30 29 28 28 28 29 31 31 27 22 21 20 17 17 15 13 11 11 11 12 13 12 11 10 13 10 8 6 2 1 1 2 3 4 5
34 35 35 35 34 34 33 32 31 30 29 29 29 29 30 31 32 31 26 22 20 19 18 16 14 13 13 13 13 11 10 12 16 9 8 7 3 3 3 4 4 5 6
36 37 37 36 37 36 35 33 33 31 29 29 28 29 30 30 31 32 29 25 22 21 19 17 16 16 15 15 15 13 11 14 16 12 9 4 5 5 5 6 6 6 7
42 41 38 38 38 38 37 35 35 33 31 30 29 28 28 30 30 31 32 30 25 20 18 15 16 18 18 17 16 14 14 14 16 14 11 6 9 9 9 9 9 9 9
43 42 41 40 39 39 38 37 35 34 33 31 30 29 29 29 30 31 30 28 27 21 20 17 15 18 21 19 15 15 16 15 16 14 10 8 10 11 11 12 11 11 10
44 44 42 41 41 40 39 39 38 36 35 33 31 29 28 28 28 29 30 29 26 24 24 14 14 15 15 21 20 17 17 17 17 16 11 9 10 11 11 12 12 12 11
45 45 44 42 42 42 42 40 39 39 37 36 33 30 27 27 27 27 25 25 23 27 20 13 16 22 18 18 21 20 21 20 18 16 14 11 11 14 15 14 13 11 11
45 45 44 45 43 43 43 43 42 40 39 37 36 33 30 29 27 26 26 23 23 17 24 21 16 19 23 18 17 21 23 22 21 19 18 14 14 17 19 18 16 14 13
46 46 46 45 44 43 44 44 43 41 39 38 36 35 33 31 30 28 27 28 24 22 26 26 21 10 18 25 18 15 23 26 25 23 21 17 17 20 22 22 22 19 16
43 44 44 44 44 43 43 42 43 42 39 38 37 36 35 32 32 30 30 30 28 28 26 27 25 21 20 19 22 21 20 25 27 26 24 23 21 18 21 25 23 22 20
42 42 42 41 42 42 41 42 43 43 40 37 36 35 38 35 34 32 31 31 29 27 27 28 29 26 26 22 19 20 19 21 21 20 19 18 18 19 20 21 19 20 19
38 38 39 39 39 38 38 38 40 40 40 38 36 35 35 37 35 35 34 32 31 31 30 29 30 30 34 26 21 18 21 21 21 21 20 19 18 19 19 18 17 19 16
36 36 36 37 37 37 35 36 36 36 37 36 35 34 35 35 35 37 33 34 33 34 32 32 30 31 29 23 22 21 20 21 23 22 22 21 20 20 21 19 17 14 15
34 34 35 34 33 34 33 32 33 37 37 35 32 32 32 33 34 34 34 33 34 34 33 30 31 30 32 28 27 24 24 23 16 18 17 17 19 20 17 17 15 15 14
33 33 33 31 31 31 31 31 32 33 36 36 34 31 29 29 31 32 34 33 33 32 33 31 32 32 31 31 25 26 28 28 23 24 23 21 22 20 20 16 15 15 14
33 32 31 28 29 30 30 29 31 33 36 32 31 29 28 28 29 30 31 33 33 32 31 31 32 31 27 29 28 28 26 22 28 29 24 22 19 18 19 16 15 17 14
31 31 29 27 28 28 27 25 28 31 33 33 33 33 30 29 29 31 31 33 33 34 32 28 25 27 27 28 30 28 27 24 19 24 27 23 19 18 13 14 14 17 19
31 29 28 28 28 27 26 22 25 28 30 32 31 31 30 29 29 28 29 29 29 28 28 26 26 25 25 27 26 27 28 28 25 22 24 19 19 18 13 15 16 17 16
Wind_Direction
300 300 298 297 283 272 274 284 281 282 288 291 286 280 274 266 258 249 217 221 217 126 112 105 98 86 81 65 44 53 59 46 25 23 9 2 3 22 34 38 54 34 52
304 304 301 297 286 278 270 280 280 278 276 275 276 274 266 261 254 250 236 223 212 212 155 119 90 72 42 42 56 51 47 49 36 12 9 1 351 16 45 64 71 10 60
309 308 306 300 293 286 274 277 278 273 270 269 268 265 261 259 254 249 244 241 241 241 235 244 278 314 327 334 342 8 5 8 18 32 44 21 9 15 36 58 321 28 38
313 314 310 305 298 293 287 273 277 274 268 265 263 261 259 257 254 248 245 243 244 245 248 260 277 295 297 312 325 337 336 345 354 15 54 46 36 43 37 69 25 64 69
310 312 312 309 304 299 295 284 273 274 267 263 262 259 257 256 255 250 248 245 243 250 254 260 277 289 291 300 313 322 323 341 340 344 355 3 21 52 49 101 88 86 80
310 308 309 309 306 300 296 291 289 271 270 266 263 260 257 257 255 252 248 247 248 251 252 263 274 282 286 291 294 303 309 313 327 335 318 319 341 77 89 97 90 84 65
307 306 307 306 305 302 297 293 286 283 273 267 265 261 260 258 257 255 249 249 249 248 255 262 262 277 284 285 285 287 289 291 294 302 307 326 325 109 93 85 80 51 360
304 305 302 301 302 299 297 293 290 283 279 275 266 261 261 260 257 257 254 249 250 249 252 259 262 273 280 280 280 279 279 278 273 286 291 295 296 137 109 2 342 321 321
305 302 300 299 298 296 294 291 288 285 280 275 271 265 261 260 261 257 255 253 249 250 251 255 260 270 277 277 276 277 276 269 272 281 280 290 203 185 289 307 310 309 307
307 303 299 296 294 293 291 288 288 285 281 277 273 268 265 263 260 261 262 256 252 248 250 254 257 266 272 273 271 270 267 264 271 284 279 276 240 258 280 292 299 302 305
303 302 300 295 291 290 288 284 284 283 281 277 275 270 267 265 263 261 263 263 256 249 250 253 255 262 268 270 266 262 261 265 271 279 276 259 257 267 282 291 298 299 302
300 299 298 295 290 287 284 283 280 279 279 276 276 275 269 267 265 264 263 262 261 252 249 248 256 258 261 269 264 259 261 264 272 276 281 262 268 277 283 286 289 293 293
300 296 295 293 290 285 282 280 277 276 274 273 272 273 272 269 267 265 266 267 264 255 258 247 250 256 258 262 260 258 259 260 270 276 282 278 271 278 284 285 286 285 287
297 295 293 291 287 283 279 276 275 272 271 270 269 270 273 272 267 267 265 266 266 263 264 249 247 254 258 257 257 257 255 260 269 274 275 276 269 279 288 288 285 285 286
296 293 290 289 286 282 277 273 271 269 268 265 266 267 268 270 270 268 270 266 270 263 259 281 269 264 259 256 257 255 255 261 268 272 278 272 266 279 285 287 287 286 286
296 293 290 285 283 280 275 271 268 267 265 264 263 264 265 267 269 269 266 267 256 263 258 261 264 267 266 259 258 259 257 260 262 269 275 275 264 275 281 283 285 283 283
295 291 286 284 281 278 274 269 266 263 261 259 260 260 261 264 265 266 265 264 262 259 257 263 265 270 259 264 266 258 258 259 263 268 273 280 272 275 279 280 283 284 285
301 294 290 284 280 277 273 269 264 260 258 257 257 258 257 261 263 267 264 264 264 260 260 262 260 266 267 268 263 263 263 264 265 266 269 274 278 278 283 279 281 285 287
305 298 291 287 281 276 273 268 263 258 254 254 256 257 257 257 261 265 268 266 265 265 264 263 258 262 265 272 266 267 269 271 272 276 276 278 283 286 289 293 290 287 286
310 303 294 287 282 277 273 269 263 256 252 251 253 255 258 256 260 261 263 268 268 266 267 264 260 259 259 261 267 270 274 272 276 275 275 279 286 290 292 292 292 296 291
313 307 301 290 280 274 270 265 259 256 252 250 253 254 255 256 255 257 265 268 267 264 264 261 261 258 258 258 265 272 283 276 277 278 273 274 283 287 287 290 289 293 295
319 313 305 294 282 273 268 267 261 255 253 254 254 255 255 257 259 258 262 266 266 266 264 260 259 260 255 250 261 262 270 280 285 292 275 285 286 285 284 287 288 283 289
317 318 312 293 282 276 271 267 263 258 251 250 251 253 257 259 263 264 262 266 266 267 265 262 258 257 257 254 254 264 267 270 277 285 290 285 280 288 289 284 282 280 285
318 315 304 279 275 276 273 265 258 252 248 251 251 254 259 266 268 269 270 268 269 271 267 265 262 258 251 257 256 260 274 280 274 277 281 292 297 290 293 281 278 287 290
328 306 294 278 277 279 272 266 259 252 251 253 254 255 259 266 271 271 273 270 267 268 272 267 261 258 256 256 255 261 267 275 283 281 276 281 296 295 299 291 279 282 290
314 301 294 284 282 281 268 268 260 253 251 249 253 255 260 266 271 274 273 269 267 269 271 271 267 263 260 261 259 258 260 266 271 279 284 283 282 294 300 294 287 292 291